World > North America > United States > Missouri > Flordell Hills

Hourly Flordell Hills, MO Regional Weather

Feedback E-mail the Weather

Quick WX

Flordell Hills, MO Weather Maps

°F °C°F °C
Flordell Hills Weather Map
UTC Time: 8/7/2022, 18:46
Your Time:

Flordell Hills, MO Regional Weather

Expires:202208071900;;630093
ASUS43 KEAX 071815
RWREAX

WEATHER ROUNDUP FOR EASTERN KANSAS AND NORTHWEST MISSOURI
NATIONAL WEATHER SERVICE KANSAS CITY/PLEASANT HILL MO
100 PM CDT SUN AUG 07 2022


MOZ041-047>049-056>058-063>065-088>090-097-071900-
...EASTERN AND SOUTHERN MISSOURI...
  
CITY           SKY/WX    TMP DP  RH WIND       PRES   REMARKS
ST. LOUIS INTL PTSUNNY   93  72  50 W8        30.09F HX 101           
6HR MIN TEMP:  81; 6HR MAX TEMP:  95;                                

SPIRIT OF STL  MOSUNNY   91  76  61 SW6       30.07F HX 103           
COLUMBIA       PTSUNNY   95  72  47 SW13      30.08F HX 103           
JEFFERSON CITY PTSUNNY   92  70  48 S9        30.07F HX  97           
MEXICO         PTSUNNY   88  79  74 SW5       30.08F HX 102           
HANNIBAL       PTSUNNY  N/A N/A N/A SW5       30.08F                  
ROLLA          MOSUNNY   91  73  55 S5        30.12F HX  99           
LEBANON        PTSUNNY   90  68  48 SW8       30.14F HX  93           
OSAGE BEACH    PTSUNNY   88  75  65 SW5       30.24S HX  97           
SPRINGFIELD    PTSUNNY   89  69  51 SW12      30.12F HX  93           
BRANSON        SUNNY     90  72  55 S3        30.15F HX  96           
JOPLIN         PTSUNNY   94  69  44 S14       30.10F HX  99           
WEST PLAINS    MOSUNNY   90  71  53 W9        30.16F HX  96           
SIKESTON       SUNNY     91  73  55 SW12      30.14F HX 100           

$$


SKY/WX - Weather  TMP - Temperature  DP - Dew Point  RH - Humidity
WIND - Wind Direction/Speed PRES - Barometric Pressure VSB - Visibility
WCI - Wind Chill Index E13G22 Wind - East Wind 13 mph/Gusts of 22 mph

Trending Headlines

Flordell Hills Radar Loop



Flordell Hills Quick Facts


National Two Day Weather Forecast


E-mail the Flordell Hills Weather Forecast

Voice your opinion or tell us about page issues...